Flag for Canada Weather past 2 weeks in Abbotsford, British Columbia, Canada

Now
50 °F

Scattered clouds.


Feels Like: 47 °F
Forecast: 37 / 58 °F
Wind: 7 mph from Southwest

Location: Abbotsford

Current Time: Apr 25, 2015 at 8:21:07 PM

Latest Report: Apr 25, 2015 at 8:00 PM


Visibility: 30 mi

Pressure: 30.04 "Hg

Humidity: 67%

Dew point: 39 °F

Location of AbbotsfordLocation

Historic Weather in Abbotsford — Graph

°F

Abbotsford temperature yesterday

Maximum temperature yesterday: 50 °F (at 11:00 AM)
Minimum temperature yesterday: 39 °F (at 12:00 AM)
Average temperature yesterday: 44 °F

Past Weeks' High & Low Weather Summary

 TemperatureHumidityPressure
High72 °F (Apr 20, 3:00 PM)100% (Apr 15, 4:00 AM)30.55 "Hg (Apr 15, 4:00 AM)
Low36 °F (Apr 15, 4:00 AM)41% (Apr 14, 2:00 PM)29.71 "Hg (Apr 10, 10:00 PM)
Average49 °F75%30.09 "Hg
* Reported Apr 10 7:00 PM — Apr 25 7:00 PM, Abbotsford, Weather by CustomWeather, © 2015

Note: Actual official high and low records may vary slightly from our data, if they occured in-between our weather recording intervals... More about our weather records

Advertising

Abbotsford weather history for previous 24 hours

 ConditionsComfort  
Time TempWeatherWind HumidityBarometerVisibility
7:00 PM
Sat, Apr 25
54 °FScattered clouds.9 mph58%30.02 "Hg25 mi
6:00 PM54 °FScattered clouds.7 mph63%30.02 "Hg25 mi
5:00 PM55 °FPartly sunny.10 mph59%30.01 "Hg25 mi
4:00 PM52 °FBroken clouds.10 mph67%30.01 "Hg25 mi
3:00 PM52 °FBroken clouds.9 mph67%30.01 "Hg25 mi
2:00 PM52 °FBroken clouds.5 mph67%30.00 "Hg25 mi
1:00 PM50 °FBroken clouds.9 mph71%30.00 "Hg25 mi
12:00 PM50 °FBroken clouds.9 mph76%30.00 "Hg20 mi
11:00 AM46 °FPartly sunny.10 mph76%29.99 "Hg20 mi
10:00 AM46 °FPartly sunny.2 mph76%29.98 "Hg20 mi
9:53 AM45 °FBroken clouds.2 mph81%29.98 "Hg20 mi
9:00 AM45 °FSprinkles. Mostly cloudy.6 mph87%29.97 "Hg20 mi
8:00 AM43 °FPartly sunny.6 mph93%29.95 "Hg25 mi
7:00 AM43 °FMostly cloudy.5 mph93%29.94 "Hg25 mi
6:00 AM41 °FLow clouds.3 mph100%29.93 "Hg25 mi
5:00 AM41 °FPartly cloudy.2 mph100%29.92 "Hg10 mi
4:00 AM41 °FPartly cloudy.2 mph100%29.91 "Hg10 mi
3:00 AM41 °FMostly cloudy.3 mph100%29.90 "Hg10 mi
2:00 AM41 °FPassing clouds.5 mph100%29.89 "Hg10 mi
1:00 AM41 °FPartly cloudy.5 mph100%29.89 "Hg10 mi
12:00 AM41 °FPartly cloudy.2 mph93%29.88 "Hg10 mi
11:00 PM
Fri, Apr 24
41 °FPassing clouds.7 mph93%29.88 "Hg10 mi
10:00 PM43 °FLight rain. Partly cloudy.8 mph93%29.88 "Hg10 mi
9:00 PM43 °FBroken clouds.7 mph87%29.86 "Hg10 mi
8:00 PM43 °FBroken clouds.14 mph81%29.85 "Hg15 mi
Weather by CustomWeather, © 2015

See weather overviewHow to use our weather pages